| time (UTC) | temp F | wind direction | speed MPH | gust MPH | rain 1hr in | rain 24hr in | rain mn in | humidity % | barometer mb |
| 20260502220009 | 48 | 76 | 2.0 | 12.0 | 0.00 | 0.00 | 0.00 | 50 | 1011.9 |
| 20260502213010 | 48 | 340 | 4.0 | 13.0 | 0.00 | 0.00 | 0.00 | 47 | 1011.6 |
| 20260502211512 | 49 | 214 | 3.0 | 9.0 | 0.00 | 0.00 | 0.00 | 47 | 1011.5 |
| 20260502204509 | 50 | 11 | 5.0 | 11.0 | 0.00 | 0.00 | 0.00 | 48 | 1011.4 |
| 20260502203001 | 50 | 172 | 6.0 | 14.0 | 0.00 | 0.00 | 0.00 | 46 | 1011.5 |
| 20260502201500 | 51 | 309 | 4.0 | 11.0 | 0.00 | 0.00 | 0.00 | 49 | 1011.7 |
| 20260502200012 | 53 | 236 | 3.0 | 9.0 | 0.00 | 0.00 | 0.00 | 42 | 1011.7 |
| 20260502193018 | 54 | 336 | 3.0 | 15.0 | 0.00 | 0.00 | 0.00 | 43 | 1011.6 |
| 20260502190016 | 52 | 234 | 1.0 | 8.0 | 0.00 | 0.00 | 0.00 | 46 | 1011.6 |
| 20260502181505 | 51 | 5 | 1.0 | 7.0 | 0.00 | 0.00 | 0.00 | 46 | 1011.9 |
| 20260502161457 | 46 | 18 | 1.0 | 6.0 | 0.00 | 0.00 | 0.00 | 56 | 1013.2 |
| 20260502123002 | 39 | 238 | 3.0 | 13.0 | 0.00 | 0.00 | 0.00 | 64 | 1013.0 |
| 20260502114501 | 39 | 286 | 2.0 | 10.0 | 0.00 | 0.00 | 0.00 | 62 | 1012.8 |
| 20260502113003 | 39 | 316 | 2.0 | 11.0 | 0.00 | 0.00 | 0.00 | 61 | 1012.5 |
| 20260502111458 | 39 | 302 | 3.0 | 8.0 | 0.00 | 0.00 | 0.00 | 62 | 1012.5 |
| 20260502104457 | 40 | 340 | 3.0 | 10.0 | 0.00 | 0.00 | 0.00 | 61 | 1012.5 |
| 20260502103011 | 40 | 44 | 4.0 | 8.0 | 0.00 | 0.00 | 0.00 | 58 | 1012.4 |
| 20260502101457 | 40 | 307 | 5.0 | 10.0 | 0.00 | 0.00 | 0.00 | 58 | 1012.6 |
| 20260502091500 | 41 | 342 | 2.0 | 10.0 | 0.00 | 0.00 | 0.00 | 67 | 1012.7 |
| 20260502071457 | 43 | 326 | 5.0 | 15.0 | 0.00 | 0.00 | 0.00 | 80 | 1012.4 |
| 20260502070000 | 43 | 292 | 5.0 | 12.0 | 0.00 | 0.00 | 0.00 | 79 | 1012.5 |
| 20260502064456 | 43 | 252 | 3.0 | 15.0 | 0.00 | 0.00 | 0.00 | 78 | 1012.5 |
| 20260502063008 | 43 | 1 | 3.0 | 14.0 | 0.00 | 0.00 | 0.00 | 77 | 1012.7 |
| 20260502061458 | 44 | 306 | 5.0 | 15.0 | 0.00 | 0.00 | 0.00 | 76 | 1012.8 |
| 20260502060006 | 44 | 62 | 3.0 | 9.0 | 0.00 | 0.00 | 0.00 | 76 | 1013.0 |
| 20260502054459 | 44 | 128 | 4.0 | 12.0 | 0.00 | 0.00 | 0.00 | 75 | 1013.1 |
| 20260502053004 | 45 | 314 | 4.0 | 11.0 | 0.00 | 0.00 | 0.00 | 76 | 1013.0 |
| 20260502051506 | 45 | 199 | 4.0 | 12.0 | 0.00 | 0.00 | 0.00 | 76 | 1013.1 |
| 20260502045957 | 46 | 25 | 4.0 | 9.0 | 0.00 | 0.00 | 0.00 | 77 | 1013.1 |
| 20260502044503 | 46 | 345 | 1.0 | 7.0 | 0.00 | 0.00 | 0.00 | 78 | 1013.3 |
| 20260502043003 | 46 | 23 | 3.0 | 11.0 | 0.00 | 0.00 | 0.00 | 78 | 1013.1 |
| 20260502041500 | 47 | 322 | 4.0 | 12.0 | 0.00 | 0.00 | 0.00 | 77 | 1013.0 |
| 20260502040002 | 48 | 242 | 2.0 | 7.0 | 0.00 | 0.00 | 0.00 | 76 | 1013.1 |
| 20260502034503 | 48 | 179 | 1.0 | 7.0 | 0.00 | 0.00 | 0.00 | 74 | 1013.2 |
| 20260502030001 | 50 | 212 | 1.0 | 7.0 | 0.00 | 0.00 | 0.00 | 69 | 1012.7 |
| 20260502023002 | 51 | 309 | 0.0 | 6.0 | 0.00 | 0.00 | 0.00 | 67 | 1012.9 |
| 20260502021501 | 52 | 70 | 0.0 | 1.0 | 0.00 | 0.00 | 0.00 | 72 | 1012.6 |
| 20260502020002 | 52 | 360 | 0.0 | 2.0 | 0.00 | 0.00 | 0.00 | 70 | 1011.8 |
| 20260502013001 | 53 | 158 | 1.0 | 2.0 | 0.00 | 0.00 | 0.00 | 69 | 1011.9 |
| 20260502011459 | 52 | 340 | 0.0 | 3.0 | 0.00 | 0.00 | 0.00 | 69 | 1011.5 |
| 20260502010001 | 52 | 30 | 0.0 | 1.0 | 0.00 | 0.00 | 0.00 | 69 | 1011.5 |
| 20260502004500 | 52 | 11 | 0.0 | 2.0 | 0.00 | 0.00 | 0.00 | 69 | 1010.9 |
| 20260502001458 | 53 | 251 | 0.0 | 3.0 | 0.00 | 0.00 | 0.00 | 66 | 1010.6 |
| 20260502000001 | 53 | 117 | 1.0 | 5.0 | 0.00 | 0.00 | 0.00 | 65 | 1010.4 |
| 20260501234459 | 54 | 23 | 1.0 | 3.0 | 0.00 | 0.00 | 0.00 | 64 | 1010.2 |
| 20260501232959 | 54 | 231 | 1.0 | 4.0 | 0.00 | 0.00 | 0.00 | 63 | 1010.1 |
| 20260501230003 | 56 | 4 | 0.0 | 3.0 | 0.00 | 0.00 | 0.00 | 61 | 1010.1 |
| 20260501224502 | 56 | 244 | 1.0 | 4.0 | 0.00 | 0.00 | 0.00 | 60 | 1010.0 |
| 20260501223009 | 58 | 5 | 0.0 | 3.0 | 0.00 | 0.00 | 0.00 | 56 | 1010.3 |
| 20260501221459 | 60 | 137 | 0.0 | 4.0 | 0.00 | 0.00 | 0.00 | 53 | 1010.5 |